Location: Arrodets-la-Barthe
(43.0306°N, 0.2829°E)
Time: 15:58:55
(UTC+00:00)

CZ-4 R/B - Pass Details

Date: 24 October 2021
Orbit: 530 x 595 km, 97.8° (Epoch: 07 December)

Event Time Altitude Azimuth Distance (km) Brightness Sun altitude
Exits shadow 19:37:20 - 207° (SSW) 2,050 4.4 -29.0°
Reaches altitude 10° 19:37:55 10° 211° (SSW) 1,853 4.2 -29.1°
Maximum altitude 19:41:11 24° 266° (W) 1,217 3.7 -29.7°
Drops below altitude 10° 19:44:31 10° 320° (NW) 1,898 4.6 -30.3°
Sets 19:47:03 0° 335° (NNW) 2,814 5.4 -30.7°
